METEOR 2-11 DEB, 40706

Orbit data source: Space-Track

METEOR 2-11 DEB, 40706 is space debris in LEO originally from a launch on Thu, 05 Jul 1984 UTC launched from the Plesetsk Missile And Space Complex (PKMTR). Debris objects in space refer to the collection of defunct objects orbiting the Earth. Examples of debris include non-operational satellites, rocket bodies, and fragments generated from explosions, collisions, or faulty payload assembly.

Loading next visibility...
Identifier
40706, 1984-072H
Orbit
LEO
Country
Flag of CISCIS
Related business
Manufacturer
Unknown
Mission
Spacecraft
Bus & Motor
Unknown
Mass
Unknown
Launch date (UTC)
1984-07-05 (41 years ago)
Launch vehicle
Unknown
Launch site
Plesetsk Missile And Space Complex (PKMTR)
Object type
Payload
Rocket body
Debris
Shape & HBR
Unknown shape, 0.1 m
Radar Cross Section
Small (<0.1 m²)

Expand to show TLE details & history
Last TLE update: 1 day ago

TLE from 1 day ago
0 METEOR 2-11 DEB
1 40706U 84072H   25341.48514926  .00004333  00000-0  30838-2 0  9999
2 40706  82.5217 164.7526 0014145 168.8821 191.2662 13.97213729562424
Epoch: 2025-12-07T11:38Z
TLE epoch observation values (Epoch: 2025-12-07T11:38:36.896Z)
Latitude
0.00002°
Longitude
-86.39899°
Altitude
916.483 km
Speed
7.389 km/s
True Right ascension
10h 59m 00s
True Declination
0° 00' 00"
Sunlit
Object was in daylight at epoch
Visualization orbit readout
Latitude
Unknown
Longitude
Unknown
Altitude
Unknown
Speed
Unknown
Apparent Right ascension
Unknown
Apparent Declination
Unknown
Sunlit
N/A
Visualization observer readout
Local Sidereal Time
17:44:57
Azimuth
Unknown
Elevation
Unknown
Doppler factor
Unknown
Orbital elements
Apogee altitude
910.89 km
Perigee altitude
890.299 km
Semi-major axis
7,278.731 km
Eccentricity
0.00141
Inclination
82.5217°
RAAN
164.7526°
Arg. of periapsis
168.8821°
True anomaly
191.23459°
Mean anomaly
191.2662°
Eccentric anomaly
191.25039°
Mean motion
3.4951 °/min
Orbital period
103 mins
BSTAR
0.0030838
Loading maneuver chart data...
Computing Atmospheric mass density...
Loading historical data...
Loading historical data...
Loading historical data...
Loading historical data...
Loading historical data...
Loading historical data...
Loading historical data...

Documentation

Showing up to 5 results
|